Preview of NWS' New Version of Forecast
This preview is not operational and should not be used for support decisions.

Regional Weather Roundup (RWR)

Issued by National Weather Service (NWS)

                            
000
ASUS46 KPQR 230710
RWROR 

OREGON REGIONAL WEATHER ROUNDUP
NATIONAL WEATHER SERVICE PORTLAND OR
1200 AM PDT SUN JUN 23 2019

NOTE: "FAIR" INDICATES FEW OR NO CLOUDS BELOW 12,000 FEET WITH
NO SIGNIFICANT WEATHER AND/OR OBSTRUCTIONS TO VISIBILITY.

ORZ001>013-230800-
NORTHWEST OREGON

  
CITY           SKY/WX    TMP DP  RH WIND       PRES   REMARKS
ASTORIA        LGT RAIN  55  53  93 NW14      30.25S                  
TILLAMOOK      CLOUDY    55  54  94 W9        30.28S                  
NEWPORT        DRIZZLE   54  52  94 CALM      30.30R                  
PORTLAND       MOCLDY    61  51  70 NW10      30.21S                  
VANCOUVER WA   PTCLDY    60  51  72 NW5       30.21S                  
SCAPPOOSE      PTCLDY    58  51  78 NE3       30.21S                  
HILLSBORO      CLEAR     57  50  77 NE5       30.22S                  
AURORA         CLOUDY    61  50  67 NW5       30.23S                  
MCMINNVILLE    CLEAR     54  49  83 SW6       30.22S                  
SALEM          PTCLDY    59  50  72 NW10      30.22R                  
CORVALLIS      CLEAR     57  50  77 NW10      30.23R                  
EUGENE         CLEAR     55  49  80 NE6       30.22R                  
$$

ORZ021-028-230800-
SOUTHWEST OREGON

  
CITY           SKY/WX    TMP DP  RH WIND       PRES   REMARKS
NORTH BEND     CLOUDY    56  53  90 N16       30.28R                  
BROOKINGS      CLEAR     65  44  46 NW7       30.11R                  
ROSEBURG       CLEAR     64  46  52 NE3       30.20R                  
SEXTON SUMMIT  CLEAR     53  45  74 N14G24    30.22R                  
GRANTS PASS    FAIR      66  48  52 NW6       30.19S                  
MEDFORD        CLEAR     65  38  36 CALM      30.14S                  
$$

ORZ014>016-041-230800-
COLUMBIA GORGE

  
CITY           SKY/WX    TMP DP  RH WIND       PRES   REMARKS
TROUTDALE      MOCLDY    61  51  70 CALM      30.21S                  
HOOD RIVER     PTCLDY    61  46  59 W3        30.13S                  
THE DALLES     PTCLDY    64  48  56 W14G26    30.08R                  
$$

ORZ029>031-041-044-049-050-061>064-502-503-505>511-230800-
EASTERN OREGON

  
CITY           SKY/WX    TMP DP  RH WIND       PRES   REMARKS
MADRAS         CLEAR     54  43  66 NW10      30.16S                  
REDMOND        CLEAR     53  38  56 NE7       30.16R                  
BEND           CLEAR     55  41  58 CALM      30.16S                  
PRINEVILLE     CLEAR     50  41  71 N7        30.17R                  
KLAMATH FALLS  CLEAR     53  42  66 CALM      30.16S                  
LAKEVIEW       PTCLDY    52  38  58 N9        30.17R                  
HERMISTON      PTCLDY    64  47  53 SW16G25   30.02R                  
PENDLETON      MOCLDY    62  44  51 W20G28    30.03R                  
JOHN DAY       CLEAR     59  38  47 SW5       30.12S                  
MEACHAM        CLEAR     54  37  52 VRB5      30.10S                  
LA GRANDE      CLEAR     56  40  55 NW8       30.08R                  
BAKER CITY     PTCLDY    56  43  61 NW6       30.08S                  
BURNS          CLEAR     50  34  54 CALM      30.11S                  
ROME             N/A     56  28  34 S12       30.08F                  
ONTARIO        PTCLDY    64  42  44 NE3       30.02S                  
$$